SERVIS 2 DEB, 43393

Orbit data source: Space-Track

SERVIS 2 DEB, 43393 is space debris in SSO originally from a launch on Wed, 02 Jun 2010 UTC launched from the Plesetsk Missile And Space Complex (PKMTR). Debris objects in space refer to the collection of defunct objects orbiting the Earth. Examples of debris include non-operational satellites, rocket bodies, and fragments generated from explosions, collisions, or faulty payload assembly.

Loading next visibility...
Identifier
43393, 2010-023C
Orbit
SSO
Country
Flag of CISCIS
Related business
Manufacturer
MELCO
Mission
Spacecraft
Bus & Motor
Unknown
Mass
Unknown
Launch date (UTC)
2010-06-02 (16 years ago)
Launch vehicle
Unknown
Launch site
Plesetsk Missile And Space Complex (PKMTR)
Object type
Payload
Rocket body
Debris
Shape & HBR
Unknown shape, 0.1 m
Radar Cross Section
Medium (>0.1 m² and <1 m²)

Expand to show TLE details & history
Last TLE update: 13 hours ago

TLE from 13 hours ago
0 SERVIS 2 DEB
1 43393U 10023C   26167.88147691  .00003854  00000-0  63317-2 0  9996
2 43393 100.5917 157.6178 0015160  18.4617 341.7060 13.47938957610455
Epoch: 2026-06-16T21:09Z
TLE epoch observation values (Epoch: 2026-06-16T21:09:19.605Z)
Latitude
-0.00002°
Longitude
-64.86103°
Altitude
1,071.867 km
Speed
7.321 km/s
True Right ascension
10h 30m 28s
True Declination
0° 00' 00"
Sunlit
Object was in daylight at epoch
Visualization orbit readout
Latitude
Unknown
Longitude
Unknown
Altitude
Unknown
Speed
Unknown
Apparent Right ascension
Unknown
Apparent Declination
Unknown
Sunlit
N/A
Visualization observer readout
Local Sidereal Time
20:52:29
Azimuth
Unknown
Elevation
Unknown
Doppler factor
Unknown
Orbital elements
Apogee altitude
1,088.505 km
Perigee altitude
1,065.901 km
Semi-major axis
7,455.34 km
Eccentricity
0.00152
Inclination
100.5917°
RAAN
157.6178°
Arg. of periapsis
18.4617°
True anomaly
341.65137°
Mean anomaly
341.706°
Eccentric anomaly
341.6787°
Mean motion
3.37165 °/min
Orbital period
106.77 mins
BSTAR
0.0063317
Loading maneuver chart data...
Computing Atmospheric mass density...
Loading historical data...
Loading historical data...
Loading historical data...
Loading historical data...
Loading historical data...
Loading historical data...
Loading historical data...
Other satellites on launch #23 in the year 2010 (2010-06-02 UTC)

Documentation

Showing up to 5 results
|